#timestamp,LO_Frequency,Hit,StdDev 
1592283615.1,286047002.3,N
1592283616.0,286047002.3,N
1592283635.8,286047002.6,N
1592283655.7,286047002.5,N
1592283675.5,286047001.6,N
1592283695.3,286047001.9,N
1592283715.2,286047002.0,N
1592283735.0,286047001.3,N
1592283735.9,286047001.3,N
1592283755.7,286047002.2,N
1592283775.6,286046999.8,N
1592283795.4,286047000.2,N
1592283815.3,286047000.5,N
1592283835.1,286047002.5,N
1592283836.0,286047002.5,N
1592283855.8,286047001.6,N
1592283875.7,286047002.3,N
1592283895.5,286047002.4,N
1592283915.4,286047004.2,Y
1592283935.2,286047002.8,P
1592283955.0,286047000.1,N
1592283955.9,286047000.1,N
1592283975.8,286046998.8,N
1592283995.6,286046999.0,N
1592284015.4,286047000.9,N
1592284035.3,286047000.7,N
1592284055.1,286047002.4,N
1592284075.9,286046998.5,N
1592284095.7,286046998.8,N
1592284115.5,286047002.5,N
1592284135.4,286047000.4,N
1592284155.2,286047002.6,N
1592284175.1,286047004.3,N
1592284176.0,286047004.3,N
1592284195.8,286046998.7,N
1592284215.6,286047003.0,N
1592284235.5,286047001.3,N
1592284255.3,286047002.7,N
1592284275.2,286047001.8,N
1592284295.9,286047001.0,N
1592284315.7,286047002.4,N
1592284335.6,286047001.4,N
1592284355.4,286047004.4,N
1592284375.3,286047001.8,N
1592284395.1,286047002.2,N
1592284396.0,286047002.2,N
1592284415.8,286047005.9,Y
1592284435.7,286047004.1,P
1592284455.5,286047004.3,P
1592284475.3,286047001.4,N
1592284495.2,286047002.6,N
1592284515.0,286046998.7,N
1592284515.9,286046998.7,N
1592284535.8,286046999.6,N
1592284555.6,286046998.7,N
1592284575.4,286046999.1,N
1592284595.3,286046997.3,N
1592284615.1,286046998.8,N
1592284635.9,286046998.7,N
1592284655.7,286047000.7,N
1592284675.5,286046999.5,N
1592284695.4,286047000.0,N
1592284715.2,286047001.2,N
1592284735.0,286047000.9,N
1592284735.9,286047000.9,N
1592284755.8,286047003.7,N
1592284775.6,286047001.6,N
1592284795.5,286047001.8,N
1592284815.3,286046999.9,N
1592284835.1,286046999.8,N
1592284855.9,286047000.4,N
1592284875.7,286047004.1,N
1592284895.6,286047002.3,N
1592284915.4,286047000.0,N
1592284935.2,286047002.5,N
1592284955.1,286047002.3,N
1592284956.0,286047002.3,N
1592284975.8,286047002.1,N
1592284995.6,286047000.2,N
1592285015.5,286047000.5,N
1592285035.3,286047000.7,N
1592285055.2,286047000.6,N
1592285075.9,286046999.8,N
1592285095.7,286047000.6,N
1592285115.6,286047001.2,N
1592285135.4,286046999.6,N
1592285155.3,286046999.6,N
1592285175.1,286046997.0,N
1592285176.0,286046997.0,N
1592285195.8,286046999.6,N
1592285215.7,286046997.4,N
1592285235.5,286046997.8,N
1592285255.3,286046997.7,N
1592285275.2,286046997.7,N
1592285295.0,286046995.1,N
1592285295.9,286046995.1,N
1592285315.8,286046997.6,N
1592285335.6,286046995.0,N
1592285355.4,286046997.9,N
1592285375.3,286046995.3,N
1592285395.1,286046995.2,N
1592285415.9,286046995.2,N
1592285435.7,286046996.1,N
1592285455.5,286046995.6,N
1592285475.4,286046995.8,N
1592285495.2,286046996.3,N
1592285515.0,286046995.1,N
1592285516.0,286046995.1,N
1592285535.8,286046995.3,N
1592285555.6,286046997.6,N
1592285575.5,286046995.3,N
1592285595.3,286046995.0,N
1592285615.1,286046995.7,N
1592285635.9,286046995.8,N
1592285655.7,286046996.1,N
1592285675.6,286046995.6,Y
1592285695.4,286046998.8,P
1592285715.2,286046998.4,N
1592285735.1,286046999.5,N
1592285736.0,286046999.5,N
1592285755.8,286046999.6,N
1592285775.7,286046998.9,N
1592285795.5,286046998.9,N
1592285815.3,286046999.2,N
1592285835.2,286046999.3,N
1592285855.0,286046999.6,N
1592285855.9,286046999.6,N
1592285875.8,286046998.4,N
1592285895.6,286046998.9,N
1592285915.4,286046997.2,Y
1592285935.3,286046999.4,P
1592285955.1,286046999.3,P
1592285975.9,286046999.2,P
1592285995.7,286046999.5,Y
1592286015.5,286046998.9,P
1592286035.4,286046998.3,P
1592286055.2,286047001.2,P
1592286075.1,286047001.1,N
1592286076.0,286047001.1,N
1592286095.8,286047000.6,N
1592286115.6,286047000.9,N
1592286135.5,286047000.1,N
1592286155.3,286047000.4,N
1592286175.2,286047000.0,N
1592286195.9,286047000.7,N
1592286215.7,286047001.1,N
1592286235.6,286047001.1,N
1592286255.4,286047000.9,N
1592286275.2,286047000.0,N
1592286295.1,286047001.2,N
1592286296.0,286047001.2,N
1592286315.8,286047000.5,N
1592286335.7,286046998.1,N
1592286355.5,286046998.4,N
1592286375.3,286047000.6,N
1592286395.2,286046999.8,N
1592286415.0,286047000.0,N
1592286415.9,286047000.0,N
1592286435.8,286047000.1,N
1592286455.6,286047000.1,N
1592286475.4,286047001.0,N
1592286495.3,286046999.9,N
1592286515.1,286047001.0,N
1592286535.9,286047001.0,N
1592286555.7,286047000.6,N
1592286575.5,286047000.7,N
1592286595.4,286046998.1,N
1592286615.2,286046998.6,N
1592286635.0,286047000.8,N
1592286635.9,286047000.8,N
1592286655.8,286047001.2,N
1592286675.6,286047000.7,N
1592286695.5,286047002.0,N
1592286715.3,286047001.6,N
1592286735.1,286047002.6,N
1592286755.9,286047011.9,Y
1592286775.7,286046998.6,P
1592286795.6,286047000.4,N
1592286815.4,286046999.8,N
1592286835.2,286047002.5,Y
1592286855.1,286047002.4,P
1592286856.0,286047002.4,N
1592286875.8,286047000.3,N
1592286895.7,286047000.9,N
1592286915.5,286046998.2,N
1592286935.3,286046998.1,N
1592286955.2,286046998.5,N
1592286975.0,286046999.9,N
1592286975.9,286046999.9,N
1592286995.7,286046998.5,N
1592287015.6,286047000.8,N
1592287035.4,286047000.9,N
1592287055.3,286047002.6,N
1592287075.1,286046999.2,N
1592287076.0,286046999.2,N
1592287095.8,286047001.1,N
1592287115.7,286047000.5,N
1592287135.5,286047001.0,N
1592287155.4,286047000.8,N
1592287175.2,286046999.9,N
1592287195.0,286046999.0,N
1592287195.9,286046999.0,N
